User: anonymous
Location: Columbia
(38.9520°N, 92.3340°W)
Time: 06:59:49
(UTC-05:00)
Language:

CZ-2C R/B - Orbit

View from above orbital plane
View from above orbital plane
View from above satellite
View from above satellite

Ground track
Ground track

The orbit data is extracted from the following two-line orbital elements,

1 28480U 04046B   14238.08869800  .00000060  00000-0  38011-4 0  4148
2 28480 098.0996 028.7164 0142579 015.6530 115.1186 14.25323309508043
Epoch (UTC): 26 August 2014 02:07:43
Eccentricity: 0.0142579
inclination: 98.0996°
perigee height: 705 km
apogee height: 910 km
right ascension of ascending node: 28.7164°
argument of perigee: 15.6530°
revolutions per day: 14.25323309
mean anomaly at epoch: 115.1186°
orbit number at epoch: 50804

The dashed part of the orbit path shows where the satellite is in the earth's shadow,  

DLR